Weather History for Iron Mountain, MI

Change the Weather History Date:

Tuesday, May 28, 2013

  Actual Average Record
Temperature  
Mean Temperature 53 °F -  
Max Temperature 55 °F 72 °F 92 °F (1969)
Min Temperature 51 °F 46 °F 26 °F (1949)
Degree Days  
Heating Degree Days 12    
Growing Degree Days 3 (Base 50)    
Moisture  
Dew Point 48 °F    
Average Humidity 81    
Maximum Humidity 96    
Minimum Humidity 55    
Precipitation  
Precipitation 0.00 in - - ()
Sea Level Pressure  
Sea Level Pressure 29.82 in    
Wind  
Wind Speed 4 mph (ESE)    
Max Wind Speed 7 mph    
Max Gust Speed -    
Visibility 9 miles    
Events Rain    
Averages and records for this station are not official NWS values.
T = Trace of Precipitation, MM = Missing Value Source: NWS Daily Summary

Daily Weather History Graph

Daily Weather History Graph

Search for Another Location

Airport:

Trip Planner

Search our weather history database for the weather conditions in past years. The results will help you decide how hot, cold, wet, or windy it might be!

Date:

Astronomy

May. 28, 2013 Rise Set
Actual Time 5:08 AM CDT 8:31 PM CDT
Civil Twilight 4:31 AM CDT 9:08 PM CDT
Nautical Twilight 3:43 AM CDT 9:57 PM CDT
Astronomical Twilight 2:42 AM CDT 10:58 PM CDT
Moon 11:47 PM CDT (5/28) 9:01 AM CDT (5/28)
Length of Visible Light 16h 36m
Length of Day
15h 23m
Waning Gibbous, 82% of the Moon is Illuminated
May 28
Waning Gibbous
May 31
Last Quarter
Jun 8
New
Jun 16
First Quarter
Jun 23
Full

Hourly Weather History & Observations

Time (CDT) Temp. Dew Point Humidity Pressure Visibility Wind Dir Wind Speed Gust Speed Precip Events Conditions
12:54 AM 55.9 °F 39.9 °F 55% 29.93 in 10.0 mi ENE 3.5 mph - N/A   Overcast
1:54 AM 55.0 °F 39.0 °F 55% 29.92 in 10.0 mi SSW 4.6 mph - N/A   Overcast
2:54 AM 52.0 °F 45.0 °F 77% 29.89 in 10.0 mi Calm Calm - 0.00 in   Overcast
3:54 AM 52.0 °F 44.1 °F 74% 29.89 in 10.0 mi East 3.5 mph - 0.00 in Rain Light Rain
4:50 AM 51.8 °F 44.6 °F 76% 29.88 in 10.0 mi Calm Calm - 0.00 in   Overcast
4:54 AM 51.1 °F 45.0 °F 80% 29.88 in 10.0 mi Calm Calm - 0.00 in   Overcast
5:54 AM 51.1 °F 44.1 °F 77% 29.88 in 10.0 mi East 3.5 mph - N/A   Overcast
6:54 AM 52.0 °F 43.0 °F 71% 29.87 in 10.0 mi ESE 6.9 mph - N/A   Overcast
7:54 AM 53.1 °F 44.1 °F 71% 29.86 in 10.0 mi ESE 6.9 mph - N/A   Overcast
8:54 AM 53.1 °F 45.0 °F 74% 29.85 in 10.0 mi East 4.6 mph - N/A   Overcast
9:27 AM 53.6 °F 46.4 °F 77% 29.84 in 10.0 mi ESE 4.6 mph - N/A   Overcast
9:54 AM 54.0 °F 46.0 °F 75% 29.84 in 10.0 mi East 6.9 mph - N/A   Overcast
10:54 AM 55.0 °F 48.0 °F 77% 29.83 in 10.0 mi SE 6.9 mph - N/A   Overcast
11:54 AM 55.0 °F 48.0 °F 77% 29.81 in 10.0 mi East 3.5 mph - N/A   Overcast
12:54 PM 55.0 °F 48.0 °F 77% 29.81 in 10.0 mi Variable 6.9 mph - N/A   Overcast
1:46 PM 55.4 °F 48.2 °F 77% 29.79 in 10.0 mi ESE 5.8 mph - N/A   Overcast
1:54 PM 55.9 °F 48.9 °F 77% 29.80 in 10.0 mi SE 6.9 mph - N/A   Overcast
2:54 PM 55.9 °F 50.0 °F 80% 29.81 in 8.0 mi SE 6.9 mph - N/A   Overcast
3:12 PM 55.4 °F 50.0 °F 82% 29.79 in 4.0 mi ESE 4.6 mph - N/A   Haze
3:54 PM 55.9 °F 50.0 °F 80% 29.80 in 10.0 mi SE 4.6 mph - N/A   Overcast
4:35 PM 55.4 °F 51.8 °F 88% 29.78 in 5.0 mi SE 4.6 mph - N/A   Overcast
4:43 PM 55.4 °F 51.8 °F 88% 29.78 in 7.0 mi ESE 3.5 mph - N/A   Overcast
4:54 PM 55.0 °F 51.1 °F 86% 29.79 in 10.0 mi ESE 4.6 mph - N/A   Overcast
5:54 PM 55.9 °F 51.1 °F 84% 29.78 in 10.0 mi SSE 3.5 mph - N/A   Overcast
6:49 PM 55.4 °F 51.8 °F 88% 29.77 in 6.0 mi SE 4.6 mph - N/A   Overcast
6:54 PM 54.0 °F 52.0 °F 93% 29.78 in 6.0 mi SE 3.5 mph - N/A   Overcast
7:54 PM 54.0 °F 52.0 °F 93% 29.77 in 8.0 mi Calm Calm - 0.00 in Rain Light Rain
8:54 PM 54.0 °F 52.0 °F 93% 29.74 in 5.0 mi Calm Calm - 0.00 in Rain Light Rain
9:54 PM 54.0 °F 52.0 °F 93% 29.76 in 9.0 mi SSE 3.5 mph - 0.00 in Rain Light Rain
10:54 PM 53.1 °F 52.0 °F 96% 29.77 in 10.0 mi Calm Calm - 0.00 in   Overcast
11:04 PM 53.6 °F 51.8 °F 94% 29.76 in 10.0 mi Calm Calm - N/A   Overcast
11:22 PM 53.6 °F 51.8 °F 94% 29.76 in 10.0 mi Calm Calm - N/A   Overcast
11:54 PM 53.1 °F 52.0 °F 96% 29.78 in 8.0 mi Calm Calm - N/A   Overcast